Weather Roundup
Issued by NWS

Home | Current Version | Previous Version | Graphics & Text | Print | Product List | Glossary Off
Versions: 1 2 3 4 5 6 7 8 9 10 11 12 13 14 15 16 17 18 19 20 21 22 23 24 25 26 27 28 29 30 31 32 33 34 35 36 37 38 39 40 41 42 43 44 45 46 47 48 49 50

177
NZUS93 KARX 181359
HRRWXR

CURRENT HOURLY OBSERVATIONS ACROSS
MUCH OF THE UPPER MISSISSIPPI VALLEY
NATIONAL WEATHER SERVICE LA CROSSE WI
800 AM CST SAT FEB 18 2017


...SOUTHEAST MINNESOTA...


CITY           SKY/WX    TMP DP  RH WIND       PRES   REMARKS
ROCHESTER      CLEAR     37  33  85 NW12      29.73R WCI  29
ROCHESTER/MAYO FAIR      39  33  78 W9        29.73R WCI  33
WINONA         CLEAR     37  32  81 CALM      29.73R
AUSTIN         CLOUDY    37  32  81 NW8       29.74R WCI  31
ALBERT LEA     PTCLDY    39  34  81 NW5       29.75R
DODGE CENTER   CLEAR     37  34  87 W10       29.73R WCI  30
PRESTON        CLEAR     37  32  82 NW13      29.72R WCI  29
OWATONNA       CLOUDY    36  32  87 W6        29.75R WCI  31
FARIBAULT      CLOUDY    37  34  87 W3        29.75R
$$

...ELSEWHERE IN MINNESOTA...


CITY           SKY/WX    TMP DP  RH WIND       PRES   REMARKS
MINNEAPOLIS    PTCLDY    36  31  82 W3        29.75R
INTNL FALLS    CLEAR     34  30  85 W7        29.57R WCI  28
DULUTH         CLEAR     37  32  82 W10       29.61R WCI  30
RED WING       CLOUDY    37  32  81 NW6       29.72R WCI  33
REDWOOD FALLS  PTCLDY    37  31  78 W8        29.77R WCI  31
MANKATO          N/A     37  32  82 NW8       29.76R WCI  31
WORTHINGTON    PTCLDY    36  31  82 W7        29.78R WCI  30
FAIRMONT       CLOUDY    36  32  85 NW7       29.77R WCI  30
$$

...SOUTHWEST WISCONSIN...


CITY           SKY/WX    TMP DP  RH WIND       PRES   REMARKS
LA CROSSE      CLEAR     38  35  89 CALM      29.71R
PRAIRIE DU CHI PTCLDY    31  30  95 CALM      29.72R
BOSCOBEL       SUNNY     34  33  96 S6        29.72R WCI  29
LONE ROCK      NOT AVBL
PLATTEVILLE    MOSUNNY   36  36 100 SW6       29.71R WCI  31
FORT MC COY    CLEAR     31  31  98 CALM      29.71R
MAUSTON-NEW LI SUNNY     39  34  81 W5        29.66R
VIROQUA        FAIR      37  34  90 CALM      29.69R
WIS DELLS      SUNNY     39  34  81 SW3       29.67R
$$

...ELSEWHERE IN WISCONSIN...


CITY           SKY/WX    TMP DP  RH WIND       PRES   REMARKS
MILWAUKEE      MOSUNNY   46  35  65 W8        29.67R
MADISON        MOSUNNY   41  35  79 CALM      29.68R
GREEN BAY      SUNNY     41  37  86 W10       29.62R
EAU CLAIRE     NOT AVBL
BLACK RVR FLS  FAIR      31  31 100 CALM      29.70R
MEDFORD        CLEAR     33  32  96 W5        29.64R WCI  28
WAUSAU         SUNNY     37  33  85 NW6       29.63R WCI  32
WIS RAPIDS     SUNNY     36  35  96 NW6       29.68R WCI  31
MARSHFIELD     CLEAR     37  32  82 W10       29.65R WCI  30
RICE LAKE      CLEAR     35  32  90 CALM      29.70R
$$

...NORTHEAST IOWA...


CITY           SKY/WX    TMP DP  RH WIND       PRES   REMARKS
WATERLOO       PTCLDY    31  30  96 SW3       29.75R
DUBUQUE        CLOUDY    36  35  96 CALM      29.73R
DECORAH        CLEAR     37  34  87 NW5       29.72R WCI  34
MASON CITY     PTCLDY    38  33  82 NW12      29.75R WCI  30
CHARLES CITY   CLOUDY    36  36 100 NW7       29.74R WCI  30
OELWEIN        PTCLDY    32  32 100 W7        29.75R WCI  26
$$

...ELSEWHERE IN IOWA...


CITY           SKY/WX    TMP DP  RH WIND       PRES   REMARKS
DES MOINES     CLOUDY    37  33  85 W3        29.79R
IOWA CITY      SUNNY     36  32  85 W5        29.78R WCI  32
FORT DODGE     CLOUDY    37  30  75 N3        29.77R
MARSHALLTOWN   PTCLDY    33  31  92 SW7       29.77R WCI  27
CEDAR RAPIDS   CLOUDY    36  34  92 W3        29.75R
$$

...NORTHERN ILLINOIS...


CITY           SKY/WX    TMP DP  RH WIND       PRES   REMARKS
CHICAGO-OHARE  MOSUNNY   46  34  62 SW6       29.72R
CHICAGO-MIDWAY MOSUNNY   48  35  60 W9        29.73R
MOLINE         SUNNY     42  33  70 CALM      29.74R
ROCKFORD       SUNNY     41  34  76 SW3       29.74R
PEORIA         SUNNY     46  35  65 CALM      29.76R
$$

NOTE: "FAIR" INDICATES FEW OR NO CLOUDS BELOW 12,000 FEET WITH NO
SIGNIFICANT WEATHER AND/OR OBSTRUCTIONS TO VISIBILITY. WIND
SPEEDS ARE IN MILES-PER-HOUR.




USA.gov is the U.S. government's official web portal to all federal, state and local government web resources and services.